Location: ???????????
(44.4062°N, 135.3991°E)
Time: 00:12:58
(UTC+00:00)

Cosmos 1980 - Pass Details

Date: 19 May 2025
Orbit: 837 x 846 km, 71.0° (Epoch: 16 June)

Event Time Altitude Azimuth Distance (km) Brightness Sun altitude
Rises 18:03:59 0° 326° (NW) 3,415 7.0 -12.5°
Reaches altitude 10° 18:06:39 10° 317° (NW) 2,474 6.2 -12.2°
Maximum altitude 18:11:38 33° 256° (WSW) 1,393 4.4 -11.6°
Drops below altitude 10° 18:16:36 10° 194° (SSW) 2,454 5.6 -10.9°
Enters shadow 18:17:26 - 190° (S) 2,742 5.9 -10.8°
